Simultaneous Nadir Overpasses (SNOs) Predictions

Prediction of SNOs between NOAA-19 and TERRA Satellite Orbit:

Table of predicted SNOs for the next 14.0 days since TLE Epoch: 7/8/2023
Index Date (NOAA-19) Time (NOAA-19) Lat,Lon (NOAA-19) SZA (NOAA-19 ) Date (TERRA) Time (TERRA) Lat,Lon (TERRA) SZA (TERRA ) Distance(km) Time Diff (sec)
1 07/08/2023 18:21:04 -80.89, 117.53 120.16 07/08/2023 18:21:55 -80.90, 117.68 120.12 3.06 51
2 07/08/2023 19:12:07 80.90, -74.55 59.92 07/08/2023 19:11:16 80.90, -74.58 59.91 0.85 51
3 07/10/2023 22:11:38 80.89,-120.08 60.11 07/10/2023 22:12:08 80.88,-120.15 60.10 1.63 30
4 07/10/2023 23:02:31 -80.89, 47.65 119.85 07/10/2023 23:01:31 -80.88, 47.54 119.89 2.56 60
5 07/13/2023 02:02:01 -80.89, 2.47 119.60 07/13/2023 02:02:21 -80.90, 2.55 119.57 2.03 20
6 07/15/2023 05:52:35 80.88, 124.66 60.70 07/15/2023 05:52:33 80.89, 124.81 60.72 2.61 2
7 07/17/2023 09:42:58 -80.88,-112.77 118.94 07/17/2023 09:42:46 -80.89,-112.68 118.93 1.86 12
8 07/19/2023 12:42:28 -80.87,-158.09 118.62 07/19/2023 12:43:36 -80.89,-157.99 118.58 2.17 68
9 07/19/2023 13:33:31 80.88, 9.50 61.43 07/19/2023 13:32:57 80.89, 9.68 61.44 3.25 34
10 07/21/2023 16:33:00 80.88, -35.62 61.80 07/21/2023 16:33:47 80.87, -35.74 61.80 2.18 47



Historial Predications of SNOs between NOAA-19 and TERRA
